Ogallala, NE

1:01 PM MDT on May 28, 2017 (GMT -0600)
Searle

Weather History for KOGA - December, 2013

Change the Weather History Date:

Monday, December 9, 2013

  Actual Average Record
Temperature  
Mean Temperature 14 °F -  
Max Temperature 27 °F 41 °F 68 °F (1957)
Min Temperature 0 °F 14 °F -14 °F (1978)
Degree Days  
Heating Degree Days 52    
Moisture  
Dew Point 1 °F    
Average Humidity 58    
Maximum Humidity 78    
Minimum Humidity 30    
Precipitation  
Precipitation 0.00 in - - ()
Sea Level Pressure  
Sea Level Pressure 30.09 in    
Wind  
Wind Speed 8 mph (WSW)    
Max Wind Speed 26 mph    
Max Gust Speed 34 mph    
Visibility 10 miles    
Events      
Averages and records for this station are not official NWS values.
T = Trace of Precipitation, MM = Missing Value Source: NWS Daily Summary

Daily Weather History Graph

Daily Weather History Graph

Search for Another Location

Airport or City:

Trip Planner

Search our weather history database for the weather conditions in past years. The results will help you decide how hot, cold, wet, or windy it might be!

Date:

Astronomy

Dec. 09, 2013 Rise Set
Actual Time 7:00 AM MST 4:18 PM MST
Civil Twilight 6:29 AM MST 4:49 PM MST
Nautical Twilight 5:55 AM MST 5:23 PM MST
Astronomical Twilight 5:21 AM MST 5:57 PM MST
Moon 11:51 AM MST (12/9) No Moon Set
Length of Visible Light 10h 19m
Length of Day
9h 17m
First Quarter, 52% of the Moon is Illuminated
Dec 9
First Quarter
Dec 17
Full
Dec 25
Last Quarter
Jan 1
New
Jan 7
First Quarter

Hourly Weather History & Observations

Time (MST) Temp. Windchill Dew Point Humidity Pressure Visibility Wind Dir Wind Speed Gust Speed Precip Events Conditions
12:15 AM 5.7 °F -1.3 °F -4.0 °F 64% 30.12 in 10.0 mi WSW 3.5 mph - N/A   Clear
12:35 AM 4.5 °F -2.7 °F -4.0 °F 68% 30.13 in 10.0 mi SW 3.5 mph - N/A   Clear
12:55 AM 2.8 °F -8.2 °F -4.2 °F 73% 30.13 in 10.0 mi SW 5.8 mph - N/A   Clear
1:15 AM 3.0 °F -4.4 °F -4.5 °F 71% 30.13 in 10.0 mi WSW 3.5 mph - N/A   Clear
1:35 AM 2.7 °F -9.7 °F -4.0 °F 74% 30.12 in 10.0 mi WNW 6.9 mph - N/A   Clear
1:55 AM 3.7 °F -3.6 °F -2.7 °F 74% 30.13 in 10.0 mi West 3.5 mph - N/A   Clear
2:15 AM 4.5 °F -4.7 °F -3.3 °F 70% 30.13 in 10.0 mi WNW 4.6 mph - N/A   Clear
2:35 AM 4.1 °F - -3.6 °F 70% 30.14 in 10.0 mi Calm Calm - N/A   Clear
2:55 AM 3.7 °F -7.1 °F -3.1 °F 73% 30.15 in 10.0 mi West 5.8 mph - N/A   Clear
3:15 AM 4.8 °F -7.1 °F -3.1 °F 70% 30.15 in 10.0 mi West 6.9 mph - N/A   Clear
3:35 AM 4.8 °F -8.3 °F -3.6 °F 68% 30.15 in 10.0 mi West 8.1 mph - N/A   Clear
3:55 AM 3.6 °F - -4.0 °F 71% 30.14 in 10.0 mi Calm Calm - N/A   Clear
4:15 AM 3.6 °F - -4.0 °F 71% 30.14 in 10.0 mi Calm Calm - N/A   Clear
4:35 AM 3.2 °F - -4.0 °F 72% 30.14 in 10.0 mi Calm Calm - N/A   Clear
4:55 AM 3.7 °F -5.5 °F -3.6 °F 71% 30.14 in 10.0 mi WSW 4.6 mph - N/A   Clear
5:15 AM 3.6 °F -3.8 °F -3.6 °F 72% 30.14 in 10.0 mi SW 3.5 mph - N/A   Clear
5:35 AM 2.7 °F -8.4 °F -3.8 °F 74% 30.15 in 10.0 mi WSW 5.8 mph - N/A   Clear
5:55 AM 0.7 °F -9.1 °F -4.9 °F 77% 30.14 in 10.0 mi West 4.6 mph - N/A   Clear
6:15 AM 0.9 °F -10.5 °F -4.5 °F 78% 30.14 in 10.0 mi West 5.8 mph - N/A   Clear
6:35 AM 0.5 °F -7.3 °F -5.1 °F 77% 30.15 in 10.0 mi West 3.5 mph - N/A   Clear
6:55 AM 1.2 °F - -4.9 °F 75% 30.15 in 10.0 mi Calm Calm - N/A   Clear
7:15 AM 1.6 °F -6.0 °F -5.4 °F 72% 30.14 in 10.0 mi SW 3.5 mph - N/A   Clear
7:35 AM 1.6 °F -8.0 °F -4.9 °F 74% 30.15 in 10.0 mi WSW 4.6 mph - N/A   Clear
7:55 AM 3.9 °F -3.4 °F -3.3 °F 72% 30.16 in 10.0 mi West 3.5 mph - N/A   Clear
8:15 AM 6.1 °F -4.3 °F -1.7 °F 71% 30.16 in 10.0 mi SW 5.8 mph - N/A   Clear
8:35 AM 8.6 °F -6.3 °F -0.6 °F 66% 30.15 in 10.0 mi WSW 11.5 mph - N/A   Clear
8:55 AM 9.9 °F 1.6 °F 0.7 °F 66% 30.16 in 10.0 mi SW 4.6 mph - N/A   Clear
9:15 AM 11.1 °F -0.6 °F 1.8 °F 66% 30.16 in 10.0 mi WSW 8.1 mph - N/A   Clear
9:35 AM 13.6 °F 2.5 °F 2.8 °F 62% 30.15 in 10.0 mi WSW 8.1 mph - N/A   Clear
9:55 AM 15.6 °F 2.5 °F 4.3 °F 61% 30.14 in 10.0 mi WSW 11.5 mph - N/A   Clear
10:15 AM 17.6 °F 3.7 °F 5.2 °F 58% 30.13 in 10.0 mi WSW 13.8 mph 18.4 mph N/A   Clear
10:35 AM 20.1 °F 6.9 °F 6.6 °F 56% 30.12 in 10.0 mi WSW 13.8 mph 18.4 mph N/A   Clear
10:55 AM 21.6 °F 8.8 °F 6.1 °F 51% 30.11 in 10.0 mi SW 13.8 mph - N/A   Clear
11:15 AM 22.3 °F 8.7 °F 7.0 °F 52% 30.09 in 10.0 mi SW 16.1 mph 19.6 mph N/A   Clear
11:35 AM 24.1 °F 10.1 °F 8.4 °F 51% 30.08 in 10.0 mi West 18.4 mph - N/A   Clear
11:55 AM 25.5 °F 10.6 °F 7.2 °F 46% 30.07 in 10.0 mi West 23.0 mph 27.6 mph N/A   Clear
12:15 PM 26.6 °F 12.7 °F 5.0 °F 40% 30.06 in 10.0 mi WSW 20.7 mph 26.5 mph N/A   Clear
12:35 PM 27.3 °F 12.1 °F 2.5 °F 35% 30.06 in 7.0 mi West 26.5 mph 34.5 mph N/A   Clear
12:55 PM 27.0 °F 12.8 °F 2.1 °F 34% 30.05 in 7.0 mi West 21.9 mph 32.2 mph N/A   Clear
1:15 PM 27.5 °F 14.2 °F 1.0 °F 32% 30.04 in 10.0 mi West 19.6 mph 26.5 mph N/A   Clear
1:35 PM 27.9 °F 14.0 °F 1.4 °F 32% 30.03 in 7.0 mi West 21.9 mph 28.8 mph N/A   Clear
1:55 PM 27.7 °F 14.1 °F 1.4 °F 32% 30.02 in 10.0 mi West 20.7 mph 28.8 mph N/A   Clear
2:15 PM 27.5 °F 13.9 °F 1.4 °F 33% 30.02 in 10.0 mi West 20.7 mph 28.8 mph N/A   Clear
2:35 PM 27.5 °F 13.9 °F -0.4 °F 30% 30.01 in 10.0 mi West 20.7 mph 32.2 mph N/A   Clear
2:55 PM 27.3 °F 13.0 °F -0.8 °F 30% 30.01 in 10.0 mi West 23.0 mph 28.8 mph N/A   Clear
3:15 PM 27.0 °F 12.8 °F 0.1 °F 32% 30.02 in 10.0 mi WNW 21.9 mph 27.6 mph N/A   Clear
3:35 PM 26.2 °F 13.4 °F 0.9 °F 34% 30.02 in 10.0 mi West 17.3 mph - N/A   Clear
3:55 PM 25.0 °F 13.1 °F 1.0 °F 36% 30.02 in 10.0 mi West 13.8 mph - N/A   Clear
4:15 PM 21.7 °F 10.8 °F 2.8 °F 44% 30.02 in 10.0 mi West 10.4 mph - N/A   Clear
4:35 PM 20.3 °F 10.6 °F 3.6 °F 48% 30.03 in 10.0 mi West 8.1 mph - N/A   Clear
4:55 PM 16.5 °F 5.1 °F 3.0 °F 55% 30.02 in 10.0 mi WSW 9.2 mph - N/A   Clear
5:15 PM 17.2 °F 6.8 °F 2.8 °F 53% 30.02 in 10.0 mi West 8.1 mph - N/A   Clear
5:35 PM 15.3 °F 3.5 °F 3.4 °F 59% 30.02 in 10.0 mi WSW 9.2 mph - N/A   Scattered Clouds
5:55 PM 19.8 °F 11.9 °F 5.0 °F 53% 30.03 in 10.0 mi WSW 5.8 mph - N/A   Overcast
6:15 PM 22.1 °F 11.3 °F 6.3 °F 51% 30.03 in 10.0 mi WSW 10.4 mph - N/A   Overcast
6:35 PM 21.6 °F 10.6 °F 6.1 °F 51% 30.03 in 10.0 mi West 10.4 mph - N/A   Scattered Clouds
6:55 PM 22.1 °F 8.0 °F 5.7 °F 49% 30.03 in 10.0 mi West 17.3 mph 20.7 mph N/A   Scattered Clouds
7:15 PM 21.2 °F 7.8 °F 5.9 °F 52% 30.03 in 10.0 mi WSW 15.0 mph - N/A   Clear
7:35 PM 20.3 °F 9.8 °F 5.9 °F 54% 30.05 in 10.0 mi West 9.2 mph - N/A   Clear
7:55 PM 19.0 °F 6.1 °F 5.9 °F 57% 30.04 in 10.0 mi West 12.7 mph - N/A   Clear
8:15 PM 19.0 °F 7.5 °F 6.1 °F 57% 30.04 in 10.0 mi West 10.4 mph - N/A   Clear
8:35 PM 19.0 °F 6.1 °F 6.3 °F 58% 30.04 in 10.0 mi West 12.7 mph - N/A   Clear
8:55 PM 19.4 °F 7.9 °F 6.3 °F 57% 30.05 in 10.0 mi West 10.4 mph - N/A   Clear
9:15 PM 20.5 °F 7.4 °F 6.4 °F 55% 30.06 in 10.0 mi West 13.8 mph - N/A   Clear
9:35 PM 21.9 °F 8.2 °F 5.9 °F 50% 30.06 in 10.0 mi West 16.1 mph 21.9 mph N/A   Clear
9:55 PM 21.0 °F 9.3 °F 6.6 °F 54% 30.07 in 10.0 mi West 11.5 mph - N/A   Clear
10:15 PM 20.3 °F 8.3 °F 6.1 °F 54% 30.07 in 10.0 mi West 11.5 mph - N/A   Clear
10:35 PM 18.7 °F 7.0 °F 5.9 °F 58% 30.07 in 10.0 mi WSW 10.4 mph - N/A   Clear
10:55 PM 18.9 °F 9.8 °F 6.4 °F 58% 30.07 in 10.0 mi WSW 6.9 mph - N/A   Clear
11:15 PM 19.6 °F 11.7 °F 8.6 °F 62% 30.07 in 10.0 mi WNW 5.8 mph - N/A   Clear
11:35 PM 17.6 °F 9.3 °F 7.7 °F 65% 30.08 in 10.0 mi WSW 5.8 mph - N/A   Clear
11:55 PM 16.2 °F 5.5 °F 6.8 °F 67% 30.08 in 10.0 mi West 8.1 mph - N/A   Clear